DECAYED

STARLINK-3101, 49168 (Decayed)

Orbit data source: Space-Track

STARLINK-3101, 49168 was a payload satellite owned by SpaceX/Seattle (US) in LEO that was launched on Tue, 14 Sep 2021 UTC via an FALCON 9 launch vehicle from the Air Force Western Test Range (AFWTR). Payload-class satellites include a variety of spacecraft equipped with specific instruments for various scientific and technological missions. These include communications satellites like Starlink; space stations such as the ISS; scientific satellites like the Hubble; Earth observation satellites from companies like Planet Labs, Umbra, and HawkEye 360; GPS; miniature CubeSats for education and research; and military/defense satellites.

Not visible in the next 10 days
Identifier
49168, 2021-082AQ
Orbit
Decayed
Country
Flag of USUS
Related business
Manufacturer
SpaceX/Seattle
Mission
Decayed Commercial Communications
Bus & Motor
STARLINK, Unknown motor
Mass
297 kg wet, ~275 kg dry
Launch date (UTC)
2021-09-14 (5 years ago)
Launch vehicle
FALCON 9
Launch site
Air Force Western Test Range (AFWTR)
Object type
Payload
Rocket body
Debris
Shape & HBR
Box + 1 Pan, 10.1 m
Radar Cross Section
13.562 m², Large (>1 m²)

Expand to show TLE details & history
Last TLE update: 1 year ago

TLE from 1 year ago
0 STARLINK-3101
1 49168U 21082AQ  25103.83585738  .14789614  44298-5  29479-3 0  9995
2 49168  69.9858  11.3284 0012604 252.0829 228.2228 16.46132276198625
Epoch: 2025-04-13T20:03Z
TLE epoch observation values (Epoch: 2025-04-13T20:03:38.077Z)
Latitude
54.42596°
Longitude
17.74022°
Altitude
163.426 km
Speed
7.811 km/s
True Right ascension
10h 43m 37s
True Declination
54° 14' 54"
Sunlit
Object was in full shadow at epoch
Visualization orbit readout
Latitude
Unknown
Longitude
Unknown
Altitude
Unknown
Speed
Unknown
Apparent Right ascension
Unknown
Apparent Declination
Unknown
Sunlit
N/A
Visualization observer readout
Local Sidereal Time
00:50:37
Azimuth
Unknown
Elevation
Unknown
Doppler factor
Unknown
Orbital elements
Apogee altitude
155.582 km
Perigee altitude
139.132 km
Semi-major axis
6,525.494 km
Eccentricity
0.00126
Inclination
69.9858°
RAAN
11.3284°
Arg. of periapsis
252.0829°
True anomaly
228.1152°
Mean anomaly
228.2228°
Eccentric anomaly
228.16899°
Mean motion
4.1174 °/min
Orbital period
87.43 mins
BSTAR
0.00029479
Loading maneuver chart data...
Computing Atmospheric mass density...

Documentation

Showing up to 5 results
|